Wind_Speed
15 5 9 9 9 10 5 3 7 9 6 7 3 14 14 5 10 13 17 15 27 28 22 19 21 25 29 29 31 31 32 29 26 24 22 19 19 18 16 20 17 20 21 18
4 4 7 8 11 15 4 2 4 3 5 5 8 9 16 4 6 15 17 17 27 30 29 27 23 23 26 28 35 35 34 30 29 25 25 18 12 17 17 13 17 19 20 18
4 6 5 9 9 13 6 4 2 2 2 3 7 2 6 2 2 13 16 18 29 36 37 33 33 30 29 30 36 38 34 28 28 20 22 22 15 19 26 15 22 27 21 17
6 7 4 6 6 10 4 6 6 6 1 5 3 4 5 5 3 5 15 18 28 37 40 39 38 37 34 32 30 34 36 31 33 29 30 34 32 27 29 32 35 32 33 24
4 6 6 9 9 13 6 5 7 6 3 4 1 4 5 4 5 9 10 22 23 29 38 42 42 38 35 33 32 34 37 33 39 36 28 23 26 26 24 31 29 27 13 12
6 4 7 9 5 11 5 2 3 4 2 2 4 4 4 8 11 2 4 14 24 26 31 37 40 37 37 37 39 40 38 33 28 29 28 27 28 33 26 30 22 19 16 19
2 4 4 4 4 3 4 4 2 2 1 5 4 2 8 4 6 11 12 21 24 26 31 29 31 34 36 36 32 30 26 20 21 20 18 20 27 31 28 31 22 18 15 14
1 1 6 5 5 6 5 7 4 5 5 3 3 5 5 4 6 11 24 20 24 26 27 31 33 34 29 26 25 26 25 24 23 25 22 24 24 26 22 22 18 8 10 21
3 4 2 5 5 6 4 4 3 5 2 4 3 4 8 5 5 4 11 19 21 26 29 30 30 28 26 25 23 23 24 27 27 20 21 26 24 27 23 19 18 18 19 23
4 3 2 2 2 3 4 4 1 2 4 4 0 2 2 4 3 6 7 14 24 26 28 26 26 25 25 21 22 22 21 20 17 19 25 24 21 21 22 23 19 22 25 21
2 1 2 4 5 6 2 2 4 4 2 4 3 2 4 4 3 8 7 20 24 25 25 27 25 22 17 18 18 21 20 18 19 25 29 26 25 20 24 22 24 25 23 19
5 3 2 6 3 7 6 6 4 4 2 2 3 3 5 4 4 2 10 21 22 26 28 29 26 20 20 15 17 25 25 28 19 24 24 20 27 25 27 26 27 26 22 18
1 2 3 5 5 3 4 4 4 5 3 3 4 4 4 2 6 10 12 12 22 26 21 21 25 24 26 23 24 22 22 26 21 20 22 24 33 30 26 28 29 24 18 14
3 3 4 5 5 4 4 5 5 5 3 4 4 6 4 9 9 12 18 9 14 23 24 24 26 26 25 26 26 24 22 24 23 23 24 30 27 27 30 29 24 18 14 9
4 2 3 3 4 2 4 5 6 5 4 5 3 5 2 5 7 9 10 7 18 22 25 29 27 25 26 26 26 24 21 21 21 26 25 25 27 30 28 24 18 12 9 9
7 3 3 4 4 5 4 5 7 2 4 2 2 3 7 11 11 16 13 9 14 17 19 26 27 28 27 29 26 22 22 25 31 32 33 31 29 25 20 16 12 10 9 8
4 3 2 2 6 3 4 8 8 5 4 6 5 4 5 6 8 11 14 18 13 16 22 29 30 31 32 31 28 28 23 28 26 25 23 22 19 16 13 10 8 5 5 7
4 4 2 3 3 1 6 2 7 5 1 4 6 7 8 10 9 11 14 18 17 20 27 32 34 36 34 35 36 33 29 25 25 22 19 19 15 11 8 5 4 4 6 8
11 2 2 1 2 3 2 4 2 7 6 6 10 10 14 17 16 9 13 16 15 17 21 28 30 33 36 39 41 42 36 31 29 25 20 17 13 8 3 2 2 4 8 9
9 7 2 3 1 0 2 4 12 2 4 10 14 18 18 18 4 4 13 16 17 19 22 26 28 32 33 31 29 29 31 27 23 19 15 10 5 2 0 2 4 6 7 9
4 2 3 2 3 3 5 13 12 4 4 5 23 27 19 5 3 22 16 20 21 23 24 27 29 30 28 28 29 30 26 23 19 14 10 6 5 4 3 4 6 7 8 8
1 1 3 1 2 3 16 8 1 4 20 14 23 19 18 25 33 31 26 27 28 29 28 28 30 30 27 22 20 20 17 15 11 9 8 7 3 3 5 5 6 7 7 7
2 3 3 1 2 1 6 8 14 14 18 14 22 25 25 28 32 35 36 32 30 29 28 26 25 25 20 14 9 9 10 9 5 4 5 3 3 5 6 6 8 8 8 9
7 7 3 3 5 8 5 23 16 6 10 20 28 30 28 40 37 38 35 31 28 26 25 22 19 19 18 16 15 13 13 11 8 6 8 8 8 6 7 8 9 9 11 12
4 9 5 3 3 12 5 20 12 7 13 21 28 30 29 41 37 37 33 29 27 26 23 19 18 18 17 14 13 13 12 11 10 10 10 9 7 6 7 7 8 10 13 14
4 3 3 3 10 6 17 20 7 8 20 28 30 29 34 40 41 37 34 29 26 24 23 21 19 17 19 17 16 16 14 11 10 12 11 9 8 7 8 9 9 11 12 13
Wind_Direction
166 207 196 207 223 239 11 178 156 227 230 162 175 202 248 232 226 224 228 184 187 183 172 177 182 194 201 209 204 205 202 199 199 199 198 211 227 243 261 267 240 238 246 247
5 238 246 177 200 248 272 352 295 209 184 147 175 193 234 177 230 206 205 183 179 174 169 176 189 192 200 201 203 201 201 200 199 200 205 209 256 265 259 268 250 244 237 241
163 269 262 212 194 230 238 210 253 214 139 165 143 179 192 215 234 227 217 198 190 187 177 175 183 196 201 208 204 204 204 198 202 200 200 207 217 265 250 248 257 258 245 239
203 198 335 204 215 198 220 207 224 285 105 171 154 222 255 198 199 249 219 212 187 187 186 183 182 185 196 206 204 202 201 207 207 221 224 232 246 207 246 235 230 232 236 222
227 150 309 259 222 181 226 226 201 226 234 112 276 102 239 133 206 224 227 214 211 203 197 196 196 197 194 195 203 203 203 221 223 224 225 239 234 221 261 236 222 213 216 218
257 174 192 199 201 174 168 184 45 55 84 53 230 131 250 197 199 185 257 212 211 211 209 205 203 204 210 215 214 218 232 241 241 239 242 246 241 237 240 220 227 219 218 236
248 201 237 168 147 280 103 99 83 64 99 203 274 101 230 222 198 178 203 213 207 208 209 205 204 212 219 223 226 227 230 230 234 236 240 241 246 235 239 212 216 216 223 219
223 242 185 183 166 185 173 167 158 166 166 185 93 216 258 255 225 192 202 203 198 204 209 211 217 219 223 230 233 236 235 234 235 243 241 241 222 220 203 196 212 226 207 190
173 279 154 183 153 139 193 204 163 110 347 98 198 297 316 352 75 113 170 200 203 202 205 209 216 214 216 231 243 238 234 241 246 246 228 216 212 197 191 173 174 221 180 201
292 336 137 147 90 68 150 159 146 359 139 161 96 207 228 24 307 150 172 198 206 207 210 213 216 219 227 232 237 232 231 233 213 204 196 181 175 182 180 178 197 185 192 203
254 118 2 97 192 160 91 40 58 111 97 142 126 251 223 269 273 285 267 202 198 206 217 217 215 213 217 220 223 213 205 201 192 186 191 188 186 195 192 202 188 184 199 207
222 165 199 221 254 171 168 179 153 120 237 68 117 269 117 262 312 268 286 260 230 210 214 219 211 202 196 201 191 195 203 199 199 193 204 212 214 194 193 189 181 191 198 205
208 313 22 1 14 14 145 159 119 111 81 178 132 259 178 6 345 349 329 283 234 227 217 209 204 195 189 187 185 184 190 193 204 208 189 197 183 178 174 175 183 188 198 217
304 161 152 201 214 168 141 155 155 108 106 176 211 273 331 17 353 348 346 317 215 207 201 192 187 186 188 192 194 198 205 208 207 206 194 180 176 175 176 178 183 192 208 233
45 314 10 279 262 208 161 186 160 180 177 149 230 209 27 20 18 6 350 116 145 163 174 178 175 171 172 178 189 203 212 205 206 184 174 174 174 174 177 183 189 203 229 256
343 4 309 297 304 203 186 209 212 205 119 81 184 229 93 63 50 36 16 111 122 146 151 151 159 160 168 186 182 179 182 174 164 159 158 159 165 167 173 183 195 215 241 269
304 324 293 77 325 83 313 221 183 190 152 158 208 206 140 83 59 42 36 52 80 114 126 132 144 153 158 170 180 169 183 174 160 153 146 150 162 169 179 193 212 244 276 303
288 353 306 294 32 178 248 246 206 184 226 155 103 132 102 110 109 97 91 92 87 106 122 133 143 148 155 161 162 146 141 162 166 173 170 176 176 179 184 200 235 295 310 316
201 280 292 41 232 284 35 350 139 164 235 168 138 129 131 136 107 57 104 118 111 117 122 134 144 148 154 153 149 157 165 165 159 157 163 171 179 178 186 252 310 324 335 338
173 238 68 328 255 203 8 332 331 84 290 173 158 159 165 174 183 129 133 113 123 128 130 136 139 142 146 142 150 151 147 151 153 154 157 155 153 159 149 4 0 356 349 349
138 204 211 242 280 318 20 306 308 165 224 213 168 166 160 197 158 139 125 125 136 137 134 136 138 139 140 146 150 148 145 142 140 144 146 139 123 107 77 356 7 7 6 1
74 97 239 159 264 346 4 359 174 298 303 202 185 151 131 125 127 135 142 138 138 133 132 131 131 128 128 132 145 123 118 113 116 122 124 119 107 79 59 41 42 31 26 19
19 2 306 225 262 142 3 322 298 290 255 177 160 157 136 140 132 139 142 143 139 136 134 136 133 129 133 143 156 160 139 129 119 116 101 88 114 89 82 65 55 45 45 47
340 17 307 7 357 321 292 1 351 321 231 161 160 161 154 146 146 147 149 145 142 143 141 141 142 140 136 134 133 132 131 129 131 128 127 125 111 95 79 68 62 49 45 42
253 329 306 284 4 331 298 356 358 74 142 151 159 162 162 158 153 151 149 148 151 149 144 145 143 135 129 133 133 129 123 117 131 133 123 117 104 88 78 74 63 44 39 38
312 1 5 298 343 325 300 323 351 133 139 150 158 153 157 160 158 157 153 153 151 145 142 143 139 138 134 135 131 127 127 133 133 127 118 110 105 96 83 70 61 53 43 29
Height
1441 1448 1444 1448 1449 1445 1444 1442 1443 1440 1433 1440 1444 1447 1438 1434 1435 1436 1437 1441 1444 1448 1452 1456 1462 1467 1473 1478 1483 1487 1490 1496 1501 1505 1510 1514 1519 1523 1527 1531 1533 1535 1540 1540
1445 1443 1442 1441 1446 1444 1444 1446 1440 1432 1431 1436 1443 1444 1440 1434 1433 1432 1433 1437 1442 1447 1450 1455 1459 1464 1469 1474 1479 1482 1487 1492 1496 1502 1506 1510 1517 1521 1524 1526 1530 1532 1536 1536
1446 1441 1438 1438 1441 1443 1441 1444 1441 1437 1431 1432 1438 1441 1439 1432 1432 1430 1429 1432 1437 1440 1445 1451 1455 1460 1465 1470 1473 1478 1484 1488 1490 1494 1500 1501 1507 1513 1522 1517 1531 1535 1534 1532
1438 1436 1435 1435 1438 1439 1444 1436 1437 1437 1438 1446 1432 1459 1439 1433 1435 1431 1427 1427 1433 1438 1444 1447 1452 1457 1461 1467 1473 1478 1481 1484 1485 1487 1486 1490 1493 1494 1509 1511 1517 1523 1523 1528
1431 1431 1438 1436 1431 1431 1435 1431 1435 1434 1435 1438 1437 1448 1437 1434 1438 1430 1424 1424 1426 1432 1438 1442 1448 1454 1461 1468 1471 1474 1477 1480 1483 1486 1490 1491 1496 1496 1502 1507 1514 1517 1516 1522
1428 1428 1430 1428 1424 1423 1424 1430 1433 1439 1443 1452 1438 1441 1438 1434 1418 1423 1421 1424 1425 1429 1435 1442 1449 1455 1461 1465 1469 1473 1475 1478 1481 1483 1484 1487 1491 1497 1498 1507 1512 1516 1516 1523
1424 1424 1420 1420 1422 1421 1425 1436 1454 1455 1455 1454 1438 1435 1429 1415 1415 1415 1418 1420 1424 1428 1433 1439 1446 1451 1456 1460 1465 1468 1472 1476 1476 1478 1479 1483 1487 1492 1494 1502 1510 1512 1516 1522
1432 1430 1420 1416 1418 1426 1429 1434 1449 1445 1458 1450 1437 1440 1422 1410 1409 1411 1413 1415 1421 1426 1431 1436 1442 1446 1452 1456 1460 1463 1467 1469 1472 1475 1479 1483 1486 1490 1496 1501 1509 1515 1516 1528
1431 1425 1413 1413 1413 1418 1425 1432 1426 1441 1440 1442 1441 1427 1415 1410 1411 1412 1413 1415 1417 1421 1425 1431 1437 1443 1449 1453 1456 1460 1465 1467 1469 1473 1477 1479 1485 1492 1496 1498 1504 1509 1517 1525
1422 1424 1412 1415 1413 1416 1419 1420 1432 1440 1442 1439 1442 1434 1429 1419 1415 1415 1415 1415 1416 1420 1424 1430 1436 1442 1446 1450 1454 1458 1463 1466 1469 1471 1477 1480 1485 1491 1495 1498 1501 1508 1515 1517
1419 1423 1419 1415 1417 1421 1423 1428 1431 1436 1441 1442 1447 1440 1425 1422 1423 1419 1415 1411 1414 1418 1422 1427 1433 1439 1445 1449 1452 1456 1462 1466 1470 1470 1478 1481 1484 1489 1494 1496 1499 1504 1510 1515
1417 1421 1422 1414 1406 1405 1411 1419 1425 1439 1437 1441 1443 1437 1421 1419 1416 1418 1415 1414 1414 1416 1420 1425 1432 1439 1444 1449 1451 1455 1461 1465 1468 1473 1475 1480 1481 1487 1489 1493 1498 1506 1510 1515
1413 1420 1429 1421 1415 1409 1412 1416 1420 1426 1435 1439 1442 1435 1419 1416 1413 1411 1409 1408 1410 1415 1418 1424 1430 1435 1442 1448 1452 1456 1460 1462 1465 1470 1472 1476 1479 1483 1490 1494 1500 1506 1509 1513
1414 1418 1422 1432 1420 1415 1416 1413 1417 1423 1439 1436 1437 1423 1416 1416 1414 1407 1404 1402 1406 1411 1416 1422 1428 1433 1438 1446 1453 1457 1462 1464 1464 1469 1472 1478 1482 1485 1491 1496 1502 1506 1509 1510
1422 1420 1416 1415 1410 1410 1408 1410 1416 1417 1419 1426 1421 1421 1417 1418 1416 1413 1409 1407 1409 1413 1415 1421 1427 1433 1438 1446 1453 1458 1463 1467 1468 1467 1474 1480 1485 1489 1493 1497 1500 1503 1506 1507
1427 1423 1418 1413 1405 1408 1409 1407 1410 1411 1417 1416 1418 1417 1417 1420 1419 1417 1416 1415 1414 1416 1420 1420 1427 1433 1439 1447 1455 1460 1462 1469 1469 1470 1477 1482 1489 1493 1497 1499 1499 1502 1504 1504
1434 1429 1423 1418 1412 1411 1420 1408 1408 1406 1407 1412 1421 1414 1417 1421 1424 1424 1424 1421 1422 1423 1423 1423 1429 1432 1440 1446 1449 1455 1463 1468 1472 1476 1484 1490 1495 1497 1500 1501 1500 1500 1501 1500
1434 1432 1431 1422 1417 1428 1405 1396 1395 1400 1402 1407 1411 1414 1415 1423 1428 1427 1427 1426 1427 1428 1429 1427 1431 1433 1441 1448 1454 1457 1470 1469 1476 1484 1486 1491 1496 1498 1500 1501 1500 1500 1501 1499
1433 1432 1430 1428 1428 1410 1406 1405 1404 1403 1408 1408 1410 1416 1420 1424 1426 1430 1429 1427 1431 1435 1436 1434 1438 1441 1446 1451 1455 1458 1467 1472 1474 1482 1490 1495 1498 1497 1499 1502 1500 1501 1499 1497
1429 1430 1430 1429 1429 1416 1415 1409 1405 1402 1412 1403 1407 1412 1417 1425 1427 1435 1436 1425 1435 1440 1444 1446 1448 1449 1454 1459 1465 1468 1473 1478 1481 1487 1493 1496 1497 1498 1500 1501 1499 1497 1497 1496
1426 1427 1429 1427 1429 1417 1414 1407 1403 1410 1414 1408 1405 1409 1419 1422 1421 1428 1428 1434 1440 1447 1451 1453 1454 1456 1461 1466 1470 1474 1477 1481 1486 1491 1494 1494 1497 1497 1500 1497 1498 1497 1495 1495
1424 1426 1427 1426 1426 1422 1412 1405 1410 1412 1400 1400 1408 1413 1417 1423 1423 1425 1432 1434 1448 1450 1455 1456 1458 1463 1469 1476 1478 1480 1483 1486 1490 1492 1492 1495 1498 1499 1498 1498 1500 1498 1499 1498
1426 1426 1422 1425 1422 1417 1417 1416 1408 1405 1401 1402 1409 1413 1414 1422 1426 1429 1440 1447 1452 1454 1457 1464 1465 1468 1474 1477 1480 1481 1483 1486 1489 1492 1495 1497 1499 1500 1501 1502 1500 1500 1501 1499
1430 1427 1425 1423 1419 1418 1417 1413 1406 1399 1398 1402 1406 1414 1418 1425 1432 1437 1444 1448 1452 1460 1464 1468 1471 1473 1475 1479 1481 1484 1486 1489 1492 1495 1496 1500 1501 1503 1503 1502 1501 1502 1501 1498
1440 1435 1430 1423 1420 1417 1415 1417 1410 1405 1402 1405 1412 1418 1422 1425 1433 1437 1444 1452 1460 1465 1467 1471 1473 1475 1477 1482 1485 1487 1490 1492 1495 1497 1499 1502 1503 1505 1505 1504 1503 1502 1500 1499
1437 1436 1436 1431 1429 1428 1420 1416 1415 1412 1410 1410 1411 1419 1427 1431 1435 1443 1450 1458 1464 1466 1470 1473 1475 1478 1481 1485 1487 1490 1493 1497 1498 1499 1502 1504 1507 1507 1507 1506 1505 1504 1503 1502